^^
Grace C. Lehan Memorial Weather Station Historical Data
Daily Summary for February 2, 2021 Units:  English    Metric   Both
Daily Weekly Monthly Yearly
  High: Low: Average:
Temperature: 72.1 °F 58.1 °F 66.7 °F
Dew Point: 70.8 °F 57.3 °F 65.5 °F
Humidity: 97% 90.5% 96%
Wind Speed: 5.3mph 0mph 0.4mph
Wind Gust: 16mph - -
Wind- - East
Pressure: 29.82 in 29.67 in -
Precipitation: 0.09 in    
 
 
Tabular Data for February 2, 2021
Time Temperature Dew Point Pressure Wind Wind Speed Wind Gust Humidity Rainfall Rate (Hourly) solar
00:00 68.7 °F 67.5 °F 29.72 in Calm     96% 0.01 in 0 W/m2
00:09 68.7 °F 67.5 °F 29.72 in Calm     96% 0.01 in 0 W/m2
00:14 68.7 °F 67.5 °F 29.71 in Calm     96% 0.01 in 0 W/m2
00:19 68.7 °F 67.5 °F 29.71 in Calm     96% 0.01 in 0 W/m2
00:24 68.7 °F 67.5 °F 29.71 in Calm     96% 0.01 in 0 W/m2
00:29 68.8 °F 67.6 °F 29.72 in Calm     96% 0.01 in 0 W/m2
00:34 68.8 °F 67.6 °F 29.72 in Calm     96% 0.01 in 0 W/m2
00:39 68.9 °F 67.7 °F 29.72 in Calm     96% 0.00 in 0 W/m2
00:44 68.9 °F 67.7 °F 29.71 in Calm     96% 0.00 in 0 W/m2
00:49 68.9 °F 67.7 °F 29.71 in Calm     96% 0.00 in 0 W/m2
00:54 68.9 °F 67.7 °F 29.71 in Calm     96% 0.00 in 0 W/m2
00:59 68.9 °F 67.7 °F 29.72 in Calm     96% 0.00 in 0 W/m2
01:04 68.9 °F 67.7 °F 29.72 in Calm     96% 0.00 in 0 W/m2
01:09 68.9 °F 67.8 °F 29.71 in Calm     96% 0.00 in 0 W/m2
01:14 69 °F 67.8 °F 29.71 in Calm     96% 0.00 in 0 W/m2
01:19 69.1 °F 67.9 °F 29.72 in Calm     96% 0.00 in 0 W/m2
01:24 69.1 °F 67.9 °F 29.72 in Calm     96% 0.01 in 0 W/m2
01:29 69.1 °F 67.9 °F 29.72 in Calm     96% 0.01 in 0 W/m2
01:34 69.1 °F 67.9 °F 29.71 in Calm     96% 0.01 in 0 W/m2
01:39 69.1 °F 67.9 °F 29.71 in Calm     96% 0.01 in 0 W/m2
01:44 69.1 °F 67.9 °F 29.71 in Calm     96% 0.02 in 0 W/m2
01:49 69.1 °F 67.9 °F 29.71 in Calm     96% 0.02 in 0 W/m2
01:54 69.1 °F 67.9 °F 29.71 in Calm     96% 0.02 in 0 W/m2
01:59 69.1 °F 67.9 °F 29.71 in Calm     96% 0.03 in 0 W/m2
02:04 69.1 °F 67.9 °F 29.71 in Calm     96% 0.03 in 0 W/m2
02:09 69.1 °F 67.9 °F 29.71 in Calm     96% 0.03 in 0 W/m2
02:14 69.1 °F 67.9 °F 29.71 in Calm     96% 0.04 in 0 W/m2
02:19 69.1 °F 67.9 °F 29.70 in Calm     96% 0.04 in 0 W/m2
02:24 69.1 °F 67.9 °F 29.71 in Calm     96% 0.04 in 0 W/m2
02:29 69.1 °F 68 °F 29.71 in Calm     96.2% 0.04 in 0 W/m2
02:34 69.1 °F 68.2 °F 29.71 in Calm     97% 0.04 in 0 W/m2
02:39 69.1 °F 68.2 °F 29.70 in Calm     97% 0.03 in 0 W/m2
02:44 69.1 °F 68.2 °F 29.71 in Calm     97% 0.03 in 0 W/m2
02:49 69 °F 68.1 °F 29.71 in Calm     97% 0.03 in 0 W/m2
02:54 69 °F 68.1 °F 29.71 in Calm     97% 0.04 in 0 W/m2
02:59 69 °F 68.1 °F 29.70 in Calm     97% 0.04 in 0 W/m2
03:04 69 °F 68.1 °F 29.70 in Calm     97% 0.04 in 0 W/m2
03:09 69.1 °F 68.2 °F 29.70 in Calm     97% 0.02 in 0 W/m2
03:14 69.1 °F 68.2 °F 29.70 in Calm     97% 0.02 in 0 W/m2
03:19 69 °F 68.2 °F 29.70 in Calm     97% 0.02 in 0 W/m2
03:24 69 °F 68.1 °F 29.70 in Calm     97% 0.02 in 0 W/m2
03:29 69 °F 68.1 °F 29.70 in Calm     97% 0.02 in 0 W/m2
03:34 69 °F 68.1 °F 29.70 in Calm   1 mph 97% 0.02 in 0 W/m2
03:39 69 °F 68.1 °F 29.70 in Calm   1 mph 97% 0.02 in 0 W/m2
03:44 69 °F 68.1 °F 29.70 in Calm   1 mph 97% 0.02 in 0 W/m2
03:49 69 °F 68.1 °F 29.70 in Calm   2 mph 97% 0.02 in 0 W/m2
03:54 69 °F 68.1 °F 29.70 in Calm   2 mph 97% 0.03 in 0 W/m2
03:59 68.9 °F 67.9 °F 29.69 in Calm   2 mph 96.4% 0.03 in 0 W/m2
04:00 68.9 °F 67.7 °F 29.69 in Calm   2 mph 96% 0.03 in 0 W/m2
04:09 69 °F 68 °F 29.68 in North 0.4 mph 4 mph 96.9% 0.03 in 0 W/m2
04:14 68.9 °F 68 °F 29.68 in Calm   4 mph 97% 0.04 in 0 W/m2
04:19 68.9 °F 68 °F 29.68 in NNE 0.3 mph 4 mph 97% 0.04 in 0 W/m2
04:24 68.9 °F 68 °F 29.67 in NE 0.7 mph 4 mph 97% 0.04 in 0 W/m2
04:29 68.8 °F 67.9 °F 29.67 in NE 0.1 mph 4 mph 97% 0.05 in 0 W/m2
04:34 68.7 °F 67.8 °F 29.68 in Calm   4 mph 96.9% 0.05 in 0 W/m2
04:39 68.6 °F 67.6 °F 29.68 in Calm   1 mph 96.5% 0.05 in 0 W/m2
04:44 68.6 °F 67.7 °F 29.68 in NE 0.2 mph 4 mph 97% 0.05 in 0 W/m2
04:49 68.6 °F 67.7 °F 29.68 in Calm   4 mph 97% 0.05 in 0 W/m2
04:54 68.5 °F 67.6 °F 29.68 in Calm   4 mph 97% 0.06 in 0 W/m2
04:59 68.5 °F 67.6 °F 29.68 in Calm   4 mph 97% 0.06 in 0 W/m2
05:04 68.5 °F 67.6 °F 29.69 in Calm   4 mph 97% 0.06 in 0 W/m2
05:09 68.5 °F 67.7 °F 29.69 in Calm     97% 0.05 in 0 W/m2
05:14 68.6 °F 67.7 °F 29.70 in Calm     97% 0.05 in 0 W/m2
05:19 68.6 °F 67.7 °F 29.71 in Calm     97% 0.06 in 0 W/m2
05:24 68.7 °F 67.8 °F 29.71 in Calm     97% 0.06 in 0 W/m2
05:29 68.7 °F 67.8 °F 29.71 in Calm     97% 0.06 in 0 W/m2
05:34 68.7 °F 67.8 °F 29.70 in Calm     97% 0.06 in 0 W/m2
05:39 68.7 °F 67.8 °F 29.70 in Calm     97% 0.03 in 0 W/m2
05:44 68.7 °F 67.8 °F 29.70 in Calm     97% 0.03 in 0 W/m2
05:49 68.7 °F 67.8 °F 29.70 in Calm     97% 0.03 in 0 W/m2
05:54 68.7 °F 67.8 °F 29.71 in Calm     97% 0.03 in 0 W/m2
05:59 68.7 °F 67.8 °F 29.71 in Calm     97% 0.03 in 0 W/m2
06:04 68.8 °F 67.9 °F 29.71 in Calm     97% 0.03 in 0 W/m2
06:09 68.8 °F 67.9 °F 29.72 in Calm     97% 0.04 in 0 W/m2
06:14 68.8 °F 67.9 °F 29.72 in Calm     97% 0.04 in 0 W/m2
06:19 68.8 °F 67.9 °F 29.72 in Calm     97% 0.05 in 0 W/m2
06:24 68.8 °F 67.9 °F 29.72 in ENE 0.3 mph 3 mph 97% 0.05 in 5 W/m2
06:29 68.8 °F 67.9 °F 29.72 in Calm   3 mph 97% 0.06 in 19 W/m2
06:34 68.8 °F 67.9 °F 29.72 in Calm   3 mph 97% 0.06 in 19 W/m2
06:39 68.7 °F 67.8 °F 29.72 in Calm     97% 0.04 in 12 W/m2
06:44 68.6 °F 67.7 °F 29.72 in Calm     97% 0.04 in 14 W/m2
06:49 68.6 °F 67.7 °F 29.72 in Calm     97% 0.04 in 26 W/m2
06:54 68.6 °F 67.8 °F 29.71 in Calm     97% 0.04 in 26 W/m2
06:59 68.7 °F 67.8 °F 29.71 in Calm     97% 0.04 in 25 W/m2
07:04 68.8 °F 67.9 °F 29.71 in Calm     97% 0.04 in 25 W/m2
07:09 68.8 °F 67.9 °F 29.71 in Calm     97% 0.04 in 25 W/m2
07:14 68.8 °F 67.9 °F 29.70 in Calm     97% 0.04 in 26 W/m2
07:19 68.8 °F 67.9 °F 29.70 in Calm     97% 0.04 in 28 W/m2
07:24 68.8 °F 67.9 °F 29.71 in Calm     97% 0.04 in 28 W/m2
07:29 68.9 °F 68 °F 29.71 in Calm     97% 0.04 in 23 W/m2
07:34 68.9 °F 68 °F 29.71 in Calm     97% 0.04 in 19 W/m2
07:39 68.6 °F 67.8 °F 29.71 in ENE 0.7 mph 5 mph 97% 0.00 in 37 W/m2
07:44 68.4 °F 67.5 °F 29.70 in ENE 0.4 mph 5 mph 97% 0.00 in 44 W/m2
07:49 68.3 °F 67.4 °F 29.70 in ENE 0.3 mph 5 mph 97% 0.00 in 46 W/m2
07:54 68.3 °F 67.4 °F 29.71 in Calm   5 mph 97% 0.00 in 54 W/m2
07:59 68.3 °F 67.4 °F 29.71 in Calm   5 mph 97% 0.00 in 54 W/m2
08:00 68.3 °F 67.4 °F 29.71 in Calm   5 mph 97% 0.00 in 51 W/m2
08:09 68.4 °F 67.5 °F 29.71 in Calm     97% 0.00 in 44 W/m2
08:14 68.5 °F 67.6 °F 29.72 in Calm     97% 0.00 in 49 W/m2
08:19 68.5 °F 67.6 °F 29.72 in Calm     97% 0.00 in 42 W/m2
08:24 68.6 °F 67.7 °F 29.72 in Calm     97% 0.00 in 46 W/m2
08:29 68.6 °F 67.7 °F 29.72 in Calm     97% 0.00 in 51 W/m2
08:34 68.7 °F 67.8 °F 29.72 in Calm     97% 0.00 in 62 W/m2
08:39 68.8 °F 67.9 °F 29.72 in Calm     97% 0.00 in 65 W/m2
08:44 68.8 °F 67.9 °F 29.72 in Calm     97% 0.00 in 116 W/m2
08:49 69 °F 68.1 °F 29.72 in Calm     97% 0.00 in 116 W/m2
08:54 69.3 °F 68.4 °F 29.72 in Calm     97% 0.00 in 88 W/m2
08:59 69.6 °F 68.7 °F 29.72 in Calm     97% 0.00 in 102 W/m2
09:04 69.7 °F 68.8 °F 29.72 in Calm     97% 0.00 in 107 W/m2
09:09 69.9 °F 69 °F 29.72 in Calm     97% 0.00 in 102 W/m2
09:14 70 °F 69.2 °F 29.72 in Calm     97% 0.00 in 62 W/m2
09:19 70 °F 69.1 °F 29.72 in Calm     97% 0.00 in 90 W/m2
09:24 69.9 °F 69 °F 29.72 in Calm     97% 0.00 in 98 W/m2
09:29 69.8 °F 68.9 °F 29.72 in Calm     97% 0.00 in 127 W/m2
09:34 69.8 °F 68.9 °F 29.71 in Calm     97% 0.00 in 206 W/m2
09:39 69.9 °F 69 °F 29.72 in Calm     97% 0.00 in 206 W/m2
09:44 70.2 °F 69.3 °F 29.72 in Calm     97% 0.00 in 200 W/m2
09:49 70.4 °F 69.5 °F 29.71 in Calm     97% 0.00 in 206 W/m2
09:54 70.6 °F 69.7 °F 29.72 in Calm     97% 0.00 in 279 W/m2
09:59 70.6 °F 69.7 °F 29.72 in Calm     97% 0.00 in 202 W/m2
10:04 70.7 °F 69.8 °F 29.72 in Calm     97% 0.00 in 204 W/m2
10:09 70.8 °F 69.9 °F 29.72 in Calm     97% 0.00 in 214 W/m2
10:14 70.9 °F 70 °F 29.72 in Calm     97% 0.00 in 315 W/m2
10:19 71 °F 70.1 °F 29.72 in Calm   1 mph 97% 0.00 in 204 W/m2
10:24 71 °F 70.1 °F 29.72 in Calm   1 mph 97% 0.00 in 244 W/m2
10:29 71.1 °F 70.3 °F 29.72 in Calm   1 mph 97% 0.00 in 202 W/m2
10:34 71.3 °F 70.5 °F 29.71 in Calm   1 mph 97% 0.00 in 220 W/m2
10:39 71.5 °F 70.6 °F 29.71 in Calm     97% 0.00 in 225 W/m2
10:44 71.4 °F 70.5 °F 29.71 in ENE 0.1 mph 3 mph 97% 0.00 in 218 W/m2
10:49 71.4 °F 70.5 °F 29.71 in Calm   3 mph 97% 0.00 in 142 W/m2
10:54 71.4 °F 70.6 °F 29.71 in Calm   3 mph 97% 0.00 in 165 W/m2
10:59 71.6 °F 70.7 °F 29.71 in Calm   3 mph 97% 0.00 in 151 W/m2
11:04 71.7 °F 70.8 °F 29.71 in ENE 0.1 mph 3 mph 97% 0.00 in 155 W/m2
11:09 71.7 °F 70.7 °F 29.71 in ENE 0.1 mph 4 mph 96.7% 0.00 in 163 W/m2
11:14 71.7 °F 70.5 °F 29.71 in ESE 0.5 mph 4 mph 96% 0.00 in 151 W/m2
11:19 71.6 °F 70.3 °F 29.71 in Calm   4 mph 96% 0.00 in 186 W/m2
11:24 71.5 °F 70.3 °F 29.70 in Calm   4 mph 95.8% 0.00 in 163 W/m2
11:29 71.7 °F 70.5 °F 29.70 in Calm   4 mph 96% 0.00 in 183 W/m2
11:34 71.7 °F 70.4 °F 29.70 in Calm   4 mph 95.5% 0.00 in 183 W/m2
11:39 71.8 °F 70.3 °F 29.70 in Calm     95% 0.00 in 179 W/m2
11:44 71.9 °F 70.4 °F 29.70 in SE 0.3 mph 6 mph 95% 0.00 in 160 W/m2
11:49 71.9 °F 70.1 °F 29.70 in Calm   6 mph 94.2% 0.00 in 118 W/m2
11:54 71.8 °F 69.9 °F 29.71 in Calm   6 mph 93.6% 0.00 in 134 W/m2
11:59 71.9 °F 69.8 °F 29.71 in Calm   6 mph 93.2% 0.00 in 149 W/m2
12:00 72 °F 69.9 °F 29.71 in Calm   6 mph 93% 0.00 in 118 W/m2
12:09 72.1 °F 70 °F 29.70 in Calm     93% 0.00 in 114 W/m2
12:14 72.1 °F 69.8 °F 29.70 in Calm     92.5% 0.00 in 86 W/m2
12:19 72.1 °F 69.6 °F 29.70 in SE 0.2 mph 3 mph 92% 0.00 in 69 W/m2
12:24 72 °F 69.6 °F 29.71 in Calm   3 mph 92% 0.00 in 63 W/m2
12:29 71.9 °F 69.5 °F 29.71 in Calm   3 mph 92% 0.00 in 60 W/m2
12:34 71.7 °F 69.2 °F 29.71 in Calm   3 mph 91.7% 0.01 in 60 W/m2
12:39 71.6 °F 69.2 °F 29.70 in Calm     92% 0.01 in 72 W/m2
12:44 71.7 °F 69.5 °F 29.70 in Calm     92.9% 0.01 in 90 W/m2
12:49 71.7 °F 69.6 °F 29.70 in East 0.1 mph 3 mph 93% 0.01 in 93 W/m2
12:54 71.6 °F 69.5 °F 29.70 in Calm   3 mph 93% 0.01 in 113 W/m2
12:59 71.5 °F 69.4 °F 29.70 in ENE 0.1 mph 3 mph 93% 0.01 in 105 W/m2
13:04 71.5 °F 69.4 °F 29.70 in ENE 0.1 mph 3 mph 93% 0.01 in 123 W/m2
13:09 71.4 °F 69.3 °F 29.70 in Calm   2 mph 93% 0.01 in 123 W/m2
13:14 71.3 °F 69.2 °F 29.70 in Calm   2 mph 93% 0.01 in 56 W/m2
13:19 71.3 °F 69.2 °F 29.70 in Calm   2 mph 93% 0.01 in 40 W/m2
13:24 71.2 °F 69.1 °F 29.70 in Calm   2 mph 93% 0.01 in 42 W/m2
13:29 71.2 °F 69.1 °F 29.71 in Calm   2 mph 93% 0.01 in 51 W/m2
13:34 71.1 °F 69 °F 29.71 in Calm   2 mph 93.1% 0.01 in 65 W/m2
13:39 71 °F 68.9 °F 29.72 in NW 1.8 mph 9 mph 93% 0.01 in 47 W/m2
13:44 70.2 °F 67.6 °F 29.72 in NW 1.7 mph 9 mph 91.3% 0.01 in 16 W/m2
13:49 69.4 °F 66.5 °F 29.71 in NW 0.2 mph 9 mph 90.5% 0.01 in 14 W/m2
13:54 68.9 °F 66.1 °F 29.71 in NNW 0.6 mph 9 mph 90.9% 0.01 in 12 W/m2
13:59 68.3 °F 65.6 °F 29.71 in West 1 mph 9 mph 91% 0.02 in 16 W/m2
14:04 67.8 °F 65.1 °F 29.71 in NNW 1.9 mph 11 mph 91% 0.07 in 21 W/m2
14:09 67.4 °F 65 °F 29.72 in NNW 1.3 mph 11 mph 91.9% 0.11 in 40 W/m2
14:14 67 °F 64.6 °F 29.72 in NNE 0.2 mph 11 mph 92.1% 0.16 in 47 W/m2
14:19 66.8 °F 64.7 °F 29.73 in NW 1.1 mph 11 mph 93% 0.22 in 42 W/m2
14:24 66.6 °F 64.5 °F 29.73 in NW 0.2 mph 11 mph 93% 0.24 in 42 W/m2
14:29 66.5 °F 64.6 °F 29.73 in Calm   11 mph 93.7% 0.26 in 35 W/m2
14:34 66.4 °F 64.6 °F 29.73 in NW 1 mph 11 mph 94% 0.27 in 35 W/m2
14:39 66.4 °F 64.6 °F 29.73 in NNW 0.7 mph 6 mph 94% 0.27 in 19 W/m2
14:44 66.1 °F 64.3 °F 29.73 in NE 2.6 mph 13 mph 94% 0.27 in 21 W/m2
14:49 65.7 °F 63.9 °F 29.73 in ENE 3.2 mph 16 mph 94% 0.29 in 35 W/m2
14:54 65.4 °F 63.6 °F 29.73 in ENE 1.3 mph 16 mph 94% 0.29 in 37 W/m2
14:59 65.3 °F 63.5 °F 29.74 in ENE 0.8 mph 16 mph 94% 0.30 in 47 W/m2
15:04 65.1 °F 63.4 °F 29.73 in ENE 0.4 mph 16 mph 94.1% 0.30 in 67 W/m2
15:09 64.9 °F 63.5 °F 29.73 in ENE 1.6 mph 11 mph 95% 0.28 in 63 W/m2
15:14 64.7 °F 63.3 °F 29.74 in NE 1.9 mph 13 mph 95% 0.28 in 72 W/m2
15:19 64.7 °F 63.2 °F 29.73 in ENE 3.6 mph 13 mph 95% 0.28 in 63 W/m2
15:24 64.5 °F 63.1 °F 29.74 in ENE 2.1 mph 13 mph 95% 0.28 in 54 W/m2
15:29 64.5 °F 63 °F 29.74 in NE 2.9 mph 13 mph 95% 0.28 in 53 W/m2
15:34 64.4 °F 63 °F 29.74 in ENE 0.8 mph 13 mph 95% 0.28 in 39 W/m2
15:39 64.4 °F 62.9 °F 29.74 in NE 3 mph 10 mph 95% 0.06 in 54 W/m2
15:44 64.4 °F 62.9 °F 29.74 in NE 1.1 mph 10 mph 95% 0.08 in 49 W/m2
15:49 64.3 °F 62.8 °F 29.74 in ENE 0.6 mph 10 mph 95% 0.08 in 60 W/m2
15:54 64.1 °F 62.6 °F 29.74 in ENE 1.5 mph 10 mph 95% 0.08 in 51 W/m2
15:59 63.9 °F 62.4 °F 29.74 in ENE 1.5 mph 10 mph 95% 0.08 in 120 W/m2
16:00 63.9 °F 62.4 °F 29.74 in Calm   10 mph 95% 0.08 in 120 W/m2
16:09 64.1 °F 62.6 °F 29.74 in NE 5.3 mph 11 mph 95% 0.08 in 91 W/m2
16:14 64.1 °F 62.7 °F 29.74 in ENE 2.9 mph 11 mph 95% 0.09 in 91 W/m2
16:19 64 °F 62.6 °F 29.74 in NE 2.3 mph 11 mph 95% 0.09 in 79 W/m2
16:24 64 °F 62.5 °F 29.74 in NE 1.9 mph 11 mph 95% 0.09 in 84 W/m2
16:29 64 °F 62.6 °F 29.75 in NE 0.5 mph 11 mph 95% 0.09 in 70 W/m2
16:34 64.2 °F 63 °F 29.75 in NE 0.1 mph 11 mph 95.9% 0.09 in 56 W/m2
16:39 64.1 °F 62.7 °F 29.75 in NE 1 mph 6 mph 95.1% 0.05 in 49 W/m2
16:44 63.9 °F 62.5 °F 29.75 in NE 0.1 mph 6 mph 95% 0.05 in 49 W/m2
16:49 63.7 °F 62.3 °F 29.75 in ENE 1.9 mph 6 mph 95% 0.05 in 51 W/m2
16:54 63.6 °F 62.1 °F 29.75 in NE 0.5 mph 6 mph 95% 0.05 in 62 W/m2
16:59 63.5 °F 62.1 °F 29.75 in NNE 0.1 mph 6 mph 95% 0.05 in 60 W/m2
17:04 63.4 °F 62 °F 29.75 in NNE 0.3 mph 6 mph 95% 0.05 in 76 W/m2
17:09 63.3 °F 61.9 °F 29.75 in ENE 1 mph 7 mph 95% 0.00 in 62 W/m2
17:14 63.2 °F 61.8 °F 29.75 in NE 1.1 mph 7 mph 95% 0.00 in 58 W/m2
17:19 63.2 °F 61.7 °F 29.75 in NE 1.2 mph 7 mph 95% 0.00 in 47 W/m2
17:24 63 °F 61.6 °F 29.76 in ENE 0.8 mph 7 mph 95% 0.00 in 35 W/m2
17:29 62.9 °F 61.4 °F 29.76 in ENE 0.3 mph 7 mph 95% 0.00 in 25 W/m2
17:34 62.7 °F 61.3 °F 29.76 in Calm   7 mph 95% 0.00 in 19 W/m2
17:39 62.6 °F 61.1 °F 29.76 in ENE 1.1 mph 7 mph 95% 0.00 in 26 W/m2
17:44 62.4 °F 61 °F 29.75 in ENE 0.8 mph 7 mph 95.1% 0.01 in 44 W/m2
17:49 62.5 °F 61.3 °F 29.75 in ENE 1.3 mph 7 mph 96% 0.01 in 35 W/m2
17:54 62.4 °F 61.3 °F 29.75 in NE 0.9 mph 7 mph 96% 0.01 in 32 W/m2
17:59 62.3 °F 61 °F 29.75 in NE 0.5 mph 7 mph 95.6% 0.02 in 28 W/m2
18:04 62.2 °F 60.7 °F 29.75 in ENE 0.7 mph 7 mph 95% 0.02 in 30 W/m2
18:09 62 °F 60.6 °F 29.75 in ENE 1.1 mph 6 mph 95% 0.02 in 23 W/m2
18:14 61.9 °F 60.7 °F 29.75 in ENE 0.7 mph 6 mph 95.7% 0.02 in 25 W/m2
18:19 61.8 °F 60.6 °F 29.75 in NE 1.6 mph 7 mph 96% 0.02 in 26 W/m2
18:24 61.7 °F 60.6 °F 29.75 in ENE 0.9 mph 7 mph 96% 0.02 in 30 W/m2
18:29 61.7 °F 60.6 °F 29.75 in ENE 2.4 mph 7 mph 96% 0.02 in 32 W/m2
18:34 61.7 °F 60.6 °F 29.75 in ENE 0.6 mph 7 mph 96% 0.02 in 19 W/m2
18:39 61.7 °F 60.5 °F 29.76 in Calm   4 mph 96% 0.02 in 16 W/m2
18:44 61.6 °F 60.5 °F 29.76 in ENE 0.4 mph 5 mph 96% 0.02 in 5 W/m2
18:49 61.5 °F 60.4 °F 29.77 in ENE 0.1 mph 5 mph 96% 0.02 in 0 W/m2
18:54 61.4 °F 60.3 °F 29.77 in ENE 0.6 mph 5 mph 96% 0.02 in 0 W/m2
18:59 61.3 °F 60.2 °F 29.77 in ENE 0.4 mph 5 mph 96% 0.03 in 0 W/m2
19:04 61.2 °F 60.1 °F 29.78 in ENE 0.1 mph 5 mph 96% 0.03 in 0 W/m2
19:09 61.1 °F 60 °F 29.78 in ENE 2.1 mph 10 mph 96% 0.02 in 0 W/m2
19:14 60.9 °F 59.8 °F 29.78 in NE 1.5 mph 10 mph 96% 0.02 in 0 W/m2
19:19 60.8 °F 59.6 °F 29.78 in ENE 1.7 mph 10 mph 96% 0.02 in 0 W/m2
19:24 60.7 °F 59.5 °F 29.78 in NE 2.9 mph 10 mph 96% 0.02 in 0 W/m2
19:29 60.6 °F 59.5 °F 29.78 in NE 1.2 mph 10 mph 96% 0.03 in 0 W/m2
19:34 60.6 °F 59.5 °F 29.78 in NNE 0.6 mph 10 mph 96% 0.03 in 0 W/m2
19:39 60.6 °F 59.4 °F 29.79 in NE 1.2 mph 7 mph 96% 0.03 in 0 W/m2
19:44 60.5 °F 59.4 °F 29.79 in NNE 0.3 mph 7 mph 96% 0.03 in 0 W/m2
19:49 60.4 °F 59.3 °F 29.79 in ENE 0.4 mph 7 mph 96% 0.03 in 0 W/m2
19:54 60.3 °F 59.1 °F 29.79 in ENE 0.8 mph 7 mph 96% 0.05 in 0 W/m2
19:59 60.2 °F 59 °F 29.79 in NE 1.8 mph 7 mph 96% 0.08 in 0 W/m2
20:04 60 °F 58.9 °F 29.79 in ENE 4 mph 4 mph 96% 0.00 in 0 W/m2
20:09 59.9 °F 58.7 °F 29.79 in ENE 1.3 mph 4 mph 96% 0.11 in 0 W/m2
20:14 59.7 °F 58.6 °F 29.80 in ENE 0.8 mph 4 mph 96% 0.11 in 0 W/m2
20:19 59.7 °F 58.5 °F 29.80 in NE 1.2 mph 10 mph 96% 0.12 in 0 W/m2
20:24 59.6 °F 58.5 °F 29.80 in NE 2.5 mph 11 mph 96% 0.12 in 0 W/m2
20:29 59.5 °F 58.4 °F 29.80 in ENE 1.6 mph 11 mph 96% 0.12 in 0 W/m2
20:34 59.5 °F 58.4 °F 29.80 in NE 1.4 mph 11 mph 96% 0.12 in 0 W/m2
20:39 59.5 °F 58.4 °F 29.80 in NE 0.7 mph 7 mph 96% 0.10 in 0 W/m2
20:44 59.5 °F 58.4 °F 29.79 in Calm   7 mph 96% 0.10 in 0 W/m2
20:49 59.5 °F 58.4 °F 29.79 in NE 0.4 mph 7 mph 96% 0.12 in 0 W/m2
20:54 59.5 °F 58.3 °F 29.79 in ENE 0.5 mph 7 mph 96% 0.13 in 0 W/m2
20:59 59.4 °F 58.3 °F 29.79 in ENE 0.4 mph 7 mph 96% 0.13 in 0 W/m2
21:04 59.3 °F 58.2 °F 29.80 in ENE 1.7 mph 9 mph 96% 0.13 in 0 W/m2
21:09 59.3 °F 58.2 °F 29.80 in ENE 0.8 mph 9 mph 96% 0.05 in 0 W/m2
21:14 59.3 °F 58.3 °F 29.80 in ENE 1.9 mph 9 mph 96.7% 0.05 in 0 W/m2
21:19 59.2 °F 58.1 °F 29.80 in ENE 0.2 mph 9 mph 96% 0.05 in 0 W/m2
21:24 59.2 °F 58.1 °F 29.80 in NE 0.7 mph 9 mph 96% 0.06 in 0 W/m2
21:29 59.1 °F 58 °F 29.81 in NE 0.2 mph 9 mph 96% 0.06 in 0 W/m2
21:34 59.1 °F 58 °F 29.81 in Calm   9 mph 96% 0.07 in 0 W/m2
21:39 59.1 °F 57.9 °F 29.81 in NE 0.1 mph 3 mph 96% 0.07 in 0 W/m2
21:44 59 °F 57.8 °F 29.81 in NE 0.2 mph 5 mph 96% 0.07 in 0 W/m2
21:49 58.8 °F 57.7 °F 29.81 in NE 0.1 mph 5 mph 96% 0.07 in 0 W/m2
21:54 58.8 °F 57.9 °F 29.81 in East 0.4 mph 6 mph 96.8% 0.07 in 0 W/m2
21:59 58.8 °F 58 °F 29.81 in NE 0.2 mph 6 mph 97% 0.08 in 0 W/m2
22:04 58.8 °F 57.9 °F 29.82 in NNE 0.6 mph 6 mph 97% 0.08 in 0 W/m2
22:09 58.7 °F 57.9 °F 29.82 in North 0.4 mph 7 mph 97% 0.04 in 0 W/m2
22:14 58.7 °F 57.8 °F 29.82 in NNE 0.4 mph 7 mph 97% 0.04 in 0 W/m2
22:19 58.6 °F 57.6 °F 29.82 in ENE 0.1 mph 7 mph 96.3% 0.04 in 0 W/m2
22:24 58.6 °F 57.5 °F 29.82 in Calm   7 mph 96% 0.04 in 0 W/m2
22:29 58.6 °F 57.6 °F 29.82 in NE 0.4 mph 7 mph 96.4% 0.04 in 0 W/m2
22:33 58.6 °F 57.7 °F 29.81 in NNE 0.9 mph 7 mph 96.9% 0.04 in 0 W/m2
23:00 58.4 °F 57.6 °F 29.81 in NNW 1 mph 7 mph 97% 0.00 in 0 W/m2
23:30 58.1 °F 57.3 °F 29.82 in Calm   9 mph 97% 0.00 in 0 W/m2
Hartford County Weather
Compliments of Weather Underground - 2 mb